Find Starlink 32897

NORAD ID: 62967 Int'l Des: 2025-029 Owner: SPXS Country: US Constellation: starlink operational
LEOCIRCULAR

現在のビュー

3D地球を読み込み中...

About Starlink 32897

Starlink 32897 (NORAD 62967) is a starlink constellation satellite (v2 mini) launched Feb 11, 2025 by SPXS of US. It operates in LEO, CIRCULAR orbit with a mass of 730.00 kg.

Starlink 32897について

説明を読み込み中...

次回通過

Passes for default location (London). Set your location on the main map for personalized predictions.

高度履歴

Loading altitude history...

軌道要素

1 62967U 25029V 26170.88301840 .00018268 00000-0 55070-3 0 9991
2 62967 53.1583 116.3720 0001264 93.7672 266.3475 15.34387666 76986
Epoch: Jun 19, 2026 • Age: 9 hours

現在のステータス

高度 463.2 km
速度 7.64 km/s
衛星直下点 2.30°N, 62.13°W
打ち上げ日 Feb 11, 2025
運用期間 1.3 years
タイプ internet

技術仕様

分類 Payload
質量 730.00 kg
乾燥質量 700.00 kg
総質量 730.00 kg
長さ 0.30 m
直径 4.10 m
スパン 29.00 m
形状 Box + pan
製造者 SPXS
バスタイプ Starlink V2M
フェーズステータス In Orbit
所有者/国 SPXS/US

Most Searched